Dewpoint
63 63 62 62 62 62 61 61 60 60 59 59 58 57 56 55 55 53 52 52 52 52 53 53 53 53 54 52 52 51 50 49 48 47 47 47 46 45 45 45 44 44
63 62 62 62 61 61 61 61 60 60 59 58 57 56 55 54 54 52 51 52 53 53 53 53 53 52 52 51 51 49 49 48 48 49 46 45 45 45 45 44 44 44
62 62 61 61 61 61 61 60 60 59 59 58 56 56 55 54 53 52 52 52 52 53 53 52 52 52 51 50 50 49 48 47 47 47 46 44 44 44 44 43 43 43
62 61 61 61 61 61 61 60 60 60 59 57 56 55 54 54 53 52 53 54 52 52 51 51 51 50 50 50 50 49 48 47 47 47 46 46 46 44 44 45 45 42
62 61 61 61 61 61 61 60 60 59 58 57 56 55 54 53 52 51 51 52 52 51 51 50 50 50 50 50 49 48 48 47 46 45 44 44 44 45 44 43 42 42
61 61 61 61 61 60 60 60 59 59 57 56 55 55 53 53 52 51 51 52 52 50 50 50 50 50 50 49 48 47 46 46 46 45 44 44 45 45 45 44 43 42
62 61 61 61 60 60 60 59 59 58 57 56 55 53 53 52 51 50 50 52 50 50 49 50 50 49 49 48 47 47 46 46 46 45 45 45 45 44 44 43 43 43
62 61 61 60 59 59 59 59 58 57 56 55 53 53 52 51 50 50 50 50 49 49 49 49 49 48 48 48 47 46 46 46 45 44 43 43 42 42 42 43 41 41
62 61 60 60 59 59 58 58 57 55 55 54 53 52 52 50 50 50 50 50 49 49 49 48 48 48 48 47 46 45 45 44 45 43 43 42 42 41 41 41 41 42
61 60 60 59 59 58 57 56 55 55 54 53 52 52 51 50 49 49 49 49 49 49 48 48 48 48 47 46 46 44 44 44 44 43 43 42 41 41 42 42 42 42
61 60 59 59 58 57 56 55 54 54 54 53 52 51 50 50 50 49 49 48 49 48 47 47 47 47 46 46 45 44 44 44 43 42 42 42 42 42 46 42 42 41
60 59 59 58 57 57 56 55 54 53 53 52 51 51 50 50 49 48 48 48 47 47 47 47 46 46 45 45 44 44 44 43 43 42 42 43 43 43 43 44 43 43
60 59 58 58 57 56 55 54 54 53 53 52 52 51 50 49 48 47 48 47 47 47 47 46 45 45 45 44 44 43 43 43 42 43 43 43 43 42 42 42 42 43
60 59 58 57 57 56 55 54 53 53 52 52 52 50 50 48 47 47 47 47 46 46 47 46 45 45 44 44 43 43 43 42 42 42 42 41 40 39 39 39 40 40
59 59 58 57 56 55 54 53 53 53 52 52 51 50 50 48 47 46 46 46 46 46 46 46 45 45 44 43 43 43 43 42 42 41 40 38 37 36 36 36 36 37
59 58 57 56 55 55 54 53 53 52 52 51 50 49 49 48 46 46 45 45 45 45 45 45 45 45 47 46 46 43 42 42 42 39 38 37 35 34 33 34 36 38
58 57 57 56 55 54 54 53 52 52 51 51 50 49 49 48 46 45 45 45 45 45 45 45 45 45 45 42 42 43 43 42 40 38 37 35 33 31 32 36 38 39
58 57 56 55 55 54 53 53 52 51 51 50 49 49 48 47 45 44 44 45 45 44 44 44 44 46 41 41 41 41 44 42 40 38 36 33 30 30 33 36 37 39
57 56 55 55 54 54 53 52 51 51 50 49 49 48 48 46 44 44 44 44 44 44 44 44 44 42 40 40 40 40 41 42 39 37 34 31 29 29 30 33 34 34
57 56 55 54 54 54 53 52 51 50 50 49 49 48 47 45 44 43 44 44 44 44 43 43 43 42 39 40 40 39 39 40 38 36 33 30 28 27 30 31 32 31
56 55 55 54 54 53 52 51 50 50 49 49 48 47 46 44 43 43 43 44 44 43 41 41 42 40 39 39 39 39 39 40 38 37 34 30 28 28 31 33 36 38
56 55 55 54 54 53 52 51 50 50 49 49 48 47 46 45 43 43 44 44 42 41 41 40 40 38 38 39 39 38 40 43 39 36 34 33 30 29 31 36 40 41
56 55 54 54 54 53 52 51 50 50 49 49 47 46 45 44 43 44 44 43 41 40 39 39 38 38 38 38 38 38 41 42 40 38 37 36 33 35 34 38 40 38
55 55 54 54 53 52 52 51 50 50 49 48 47 46 45 44 44 45 44 42 41 40 39 38 37 38 37 38 39 39 42 42 41 40 39 37 38 38 38 39 39 43
55 55 54 53 53 52 52 51 50 49 49 48 47 46 45 45 45 45 44 42 40 39 43 39 37 38 37 38 40 40 42 42 42 40 40 41 41 40 42 42 43 46
55 54 54 53 53 52 52 51 50 49 48 47 47 46 45 45 45 45 43 42 41 40 41 39 39 39 39 38 39 40 40 42 41 40 40 41 41 43 43 41 42 43